Regional Weather Roundup
Issued by NWS Austin/San Antonio, TX

Home | Current Version | Previous Version | Text Only | Print | Product List | Glossary On
Versions: 1 2 3 4 5 6 7 8 9 10 11 12 13 14 15 16 17 18 19 20 21 22 23 24 25 26 27 28 29 30 31 32 33 34 35 36 37 38 39 40 41 42 43 44 45 46 47 48 49 50
000
ASUS44 KEWX 171911
RWREWX
SOUTH TEXAS REGIONAL WEATHER ROUNDUP
NATIONAL WEATHER SERVICE AUSTIN/SAN ANTONIO TX
200 PM CDT THU AUG 17 2017

NOTE: "FAIR" INDICATED FEW OR NO CLOUDS BELOW 12,000 FEET WITH NO
SIGNIFICANT WEATHER AND/OR OBSTRUCTIONS TO VISIBILITY.

* - THESE STATIONS ARE NOT NWS OR FAA STATIONS...AND ARE NOT SUBJECT
    TO NWS AND FAA QUALITY CONTROL.

TXZ171-172-183>190-172000-
TEXAS HILL COUNTRY AND EDWARDS PLATEAU

CITY           SKY/WX    TMP DP  RH WIND       PRES   REMARKS
JUNCTION       MOSUNNY   95  68  41 SE8       30.03F HX  99
*LLANO         SUNNY     95  73  49 S6        30.05F HX 105
BURNET         SUNNY     94  72  48 S12G20    30.06F HX 102
*HORSESHOE BAY MOSUNNY   96  69  41 SW5       30.03F HX 102
*KERRVILLE     SUNNY     92  71  51 S8G17     30.07F HX  98
*FREDERICKSBRG MOSUNNY   90  66  45 S9        30.06F HX  92
*ROCKSPRINGS   NOT AVBL
*BOERNE STAGE  SUNNY     90  68  48 S10G21    30.07F HX  93
*CASTROVILLE   SUNNY     95  64  36 SE10      30.04F HX  97
HONDO          SUNNY     95  70  44 S14       30.03F HX 101
*UVALDE        SUNNY     93  69  44 CALM      30.02F HX  98
DEL RIO        MOSUNNY   93  72  50 E13       29.97F HX 101
LAUGHLIN AFB   PTSUNNY   94  73  50 SE9       29.98F HX 103
CARRIZO SPRGS  SUNNY     99  61  28 S16G23    29.96F HX  99
*EAGLE PASS    NOT AVBL
$$

TXZ173-191>194-202-209-217>225-228-172000-
CENTRAL AND SOUTH CENTRAL TEXAS

CITY           SKY/WX    TMP DP  RH WIND       PRES   REMARKS
GEORGETOWN     SUNNY     94  72  48 VRB6G16   30.04F HX 102
AUSTIN/BERGSTM MOSUNNY   97  71  42 S15       30.01F HX 104
AUSTIN/MABRY   SUNNY     98  67  36 VRB7G17   30.03F HX 102
*AUSTIN/EXEC   SUNNY     93  68  43 SW10G18   30.03F HX  97
*LAGO VISTA    SUNNY     94  68  42 S5G17     30.05F HX  98
SAN MARCOS     SUNNY     97  72  44 S13       30.03F HX 105
NEW BRAUNFELS  SUNNY     95  70  44 SW10G21   30.01F HX 101
RANDOLPH AFB   SUNNY     93  70  46 S9        30.03F HX  99
PT SAN ANTONIO MOSUNNY   92  72  51 SE10      30.01F HX 100
SAN ANTONIO    MOSUNNY   92  71  50 VRB5      30.04F HX  98
STINSON FIELD  MOSUNNY   95  70  44 S12       30.01F HX 101
*LA GRANGE     MOSUNNY  100  69  35 W8        29.99F HX 106
*GIDDINGS      MOSUNNY   96  66  37 SW10G20   30.03F HX  99
*GONZALES      MOSUNNY  100  71  39 S7G16     30.00F HX 108
$$

TXZ163>164-176>182-195>201-210>213-226-227-235-172000-
SOUTHEAST TEXAS

CITY           SKY/WX    TMP DP  RH WIND       PRES   REMARKS
COLLEGE STN    MOSUNNY   95  70  44 W12G18    30.02F HX 101
*BRYAN         MOSUNNY   95  70  43 S9G16     30.04F HX 101
*CALDWELL      NOT AVBL
*CROCKETT      MOSUNNY   77  73  88 E5        30.09F
*BRENHAM       MOSUNNY   98  68  37 S13       30.03S HX 102
HUNTSVILLE     PTSUNNY   94  67  41 CALM      30.05F HX  97
CONROE         MOSUNNY   93  70  46 VRB3      30.05S HX  99
HOUSTON BUSH   MOSUNNY   95  70  44 SW9       30.03F HX 101
HOUSTON HOBBY  MOSUNNY   97  71  42 SW10      30.03F HX 104
*HOUSTON SW AP MOSUNNY   95  73  49 S6        30.04F HX 104
PEARLAND       MOSUNNY   97  68  38 S9        30.05F HX 102
HOUSTON HOOKS  PTSUNNY   94  74  52 S7        30.04F HX 104
ELLINGTON FLD  MOSUNNY   97  73  46 SW9       30.05F HX 107
SUGAR LAND     MOSUNNY   96  72  45 S6G16     30.03F HX 104
*HOUSTON EXEC  MOSUNNY   95  73  49 SW9       30.04F HX 105
*CLEVELAND MUN SUNNY     95  74  51 SW3       30.06F HX 105
*WHARTON       MOSUNNY   92  70  47 S10       30.04F HX  97
*COLUMBUS      FAIR      96  67  39 SW10      30.03F HX 100
*EAGLE LAKE    PTCLDY    98  71  41 SW13G18   30.02F HX 106
$$

TXZ214>216-236>238-172000-
THE UPPER TEXAS COAST

CITY           SKY/WX    TMP DP  RH WIND       PRES   REMARKS
*ORANGE        PTSUNNY   92  79  65 S12       30.07S HX 109
PORT ARTHUR    PTSUNNY   92  75  57 SW10      30.05S HX 103
GALVESTON      MOSUNNY   91  80  70 S13       30.06F HX 109
ANGLETON       MOSUNNY   93  77  59 S12       30.05S HX 107
*BAY CITY      MOSUNNY   92  76  59 S9        30.05S HX 104
PALACIOS       MOSUNNY   88  76  67 S14       30.04F HX  99
$$

TXZ229>234-239>247-172000-
TEXAS COASTAL BEND AND RIO GRANDE PLAINS

CITY           SKY/WX    TMP DP  RH WIND       PRES   REMARKS
VICTORIA       MOSUNNY   93  73  52 S13       30.02F HX 102
*BEEVILLE      MOSUNNY  100  68  35 S10G23    30.00F HX 105
ROCKPORT         N/A     91  76  61 SE15      30.02F HX 103
*PORT ARANSAS  MOSUNNY   88  78  72 S10       30.03F HX 101
*PORT LAVACA   MOSUNNY   92  73  52 S14G24    30.04S HX 100
*INGLESIDE     MOSUNNY   93  76  57 MISG      30.02F HX 105
CORPUS CHRISTI MOSUNNY   95  74  50 SE18G29   30.00F HX 105
CORPUS NAS     MOSUNNY   95  77  55 S20       30.02F HX 109
*ROBSTOWN      MOSUNNY   97  72  44 S12G23    29.99F HX 105
ALICE          SUNNY     99  66  33 SE13G24   29.97F HX 103
KINGSVILLE NAS MOSUNNY  100  74  43 SE15G25   29.98F HX 112
COTULLA        SUNNY     98  62  30 SE9G17    29.97F HX  99
*FAITH RANCH   SUNNY     99  63  30 SE12G22   29.97F HX 100
LAREDO         SUNNY    100  67  33 S13G26    29.96F HX 105
$$

TXZ248>255-172000-
DEEP SOUTH TEXAS

CITY           SKY/WX    TMP DP  RH WIND       PRES   REMARKS
BROWNSVILLE    MOSUNNY   94  76  55 SE20G28   30.00F HX 106
PORT ISABEL    MOSUNNY   96  74  48 SE23G29   29.99F HX 107
*SOUTH PADRE   NOT AVBL
HARLINGEN      PTSUNNY   97  73  45 S22G35    29.97F HX 107
*HEBBRONVILLE  MOSUNNY   96  63  34 S15G24    29.99F HX  97
MCALLEN        MOSUNNY   98  71  41 SE23G30   29.96F HX 106
*WESLACO       MOSUNNY   95  69  42 S20G25    29.97F HX 100
FALFURRIAS     SUNNY     99  64  31 S18       29.96F HX 102
EDINBURG       MOSUNNY   99  65  32 S16G23    29.97F HX 102
*ZAPATA        SUNNY     99  63  30 SE15G26   29.94F HX 101
$$

TXZ213>215-236>238-242>244-246-247-251-254-255-172000-
CMAN STATIONS

STATION/POSITION TIME  TEMP    WIND        PRES    WAVE
                       AIR SEA DIR/SP/G            HT/PER
                 (UTC) (F)     (DEG/KT/KT) (MB)    (FT/S)
SABINE PASS      1836   90 89  200/  9/ 12 1019.6
SEA RIM ST PARK  1800   88     220/ 11/ 12 1018.6
NORTH JETTY/GLS  1836      87  180/ 12/ 14 1017.6
EAGLE POINT      1836   89 88  200/ 13/ 15 1017.7
MORGANS POINT    1848   91 87  130/  9/ 10 1017.4
MISSION/ARANSAS  1800          160/ 13     1018.0
PORT O`CONNOR    1836   86     170/ 12/ 15 1017.0
PORT ARANSAS     1800   83 87  170/  8/  9 1017.5
MALAQUITE BEACH  1848   84 87  140/ 12/ 14 1016.2
BAFFIN BAY       1848   86 89              1016.4
PORT ISABEL      1848   87 83              1016.2
$$




USA.gov is the U.S. government's official web portal to all federal, state and local government web resources and services.